Погода в Мажорде

Индия     15°22′22″N   73°53′25″E
темп.,
°C
ветер,
м/с
пор.,
м/с
влажн.,
%
обл.,
%
осадки,
мм/ч
давл.,
гПа
погр.,
м
28 февраля, вс
вс2823:30+24ссз12810 0.0 100968
02:30+22св01830 0.0 100846
05:30+22вюв11790 0.0 100736
08:30+28ююв11400 0.0 1010138
11:30+37юз34230 0.0 10101751
14:30+35зюз66330 0.0 10061420
17:30+31зюз34500 0.0 1006550
20:30+25с11800 0.0 100935
1 марта, пн
пн123:30+24вюв12814 0.0 101131
02:30+23вюв118124 0.0 100936
05:30+21вюв118523 0.0 100945
08:30+26вюв236410 0.0 1013252
11:30+33ююз43455 0.0 10131270
14:30+32юз66560 0.0 1009823
17:30+29юз34650 0.0 1009753
20:30+25з11860 0.0 101295
2 марта, вт
вт223:30+24в11904 0.0 101237
02:30+23вюв22940 0.0 101149
05:30+22в12940 0.0 101041
08:30+27св01690 0.0 1013208
11:30+36юз22360 0.0 1013983
14:30+32зюз66520 0.0 1009594
17:30+30зюз34602 0.0 1008542
20:30+25ссз11820 0.0 101071
3 марта, ср
ср323:30+24св11860 0.0 101155
02:30+22ю01900 0.0 100937
05:30+22юв12900 0.0 100844
08:30+27юв11640 0.0 1011233
11:30+35юз23390 0.0 1011901
14:30+33зюз55510 0.0 1007558
17:30+30з33570 0.0 1006483
20:30+24св11810 0.0 100964
4 марта, чт
чт423:30+23в12820 0.0 100938
02:30+23юв11800 0.0 100835
05:30+22ююв127815 0.0 100858
08:30+27юв125694 0.0 1011256
11:30+33ююз554491 0.0 1012828
14:30+32юз675534 0.0 1008755
17:30+29юз456617 0.0 1008725
20:30+25ююв11851 0.0 101098